Regional Weather Roundup
Issued by NWS

Home | Current Version | Previous Version | Graphics & Text | Print | Product List | Glossary On
Versions: 1 2 3 4 5 6 7 8 9 10 11 12 13 14 15 16 17 18 19 20 21 22 23 24 25 26 27 28 29 30 31 32 33 34 35 36 37 38 39 40 41 42 43 44 45 46 47 48 49 50
000
ASUS45 KCYS 310110
RWRWY

WYOMING REGIONAL WEATHER ROUNDUP
NATIONAL WEATHER SERVICE CHEYENNE WY
700 PM MDT SAT JUL 30 2016

NOTE:  "FAIR" INDICATES FEW OR NO CLOUDS BELOW 12,000 FEET
WITH NO SIGNIFICANT WEATHER AND/OR OBSTRUCTIONS TO VISIBILITY.

WYZ001-310200-
YELLOWSTONE NATIONAL PARK

CITY           SKY/WX    TMP DP  RH WIND       PRES   REMARKS
LK YELLOWSTONE   N/A     73  35  25 VRB5G20   30.17S
W YELLOWSTONE  NOT AVBL

$$
WYZ002>013-054>058-071-098>099-310200-
NORTHERN WYOMING

CITY           SKY/WX    TMP DP  RH WIND       PRES   REMARKS
JACKSON        MOSUNNY   79  43  27 SW14G26   30.05S
CODY           FAIR      84  41  21 SW7       29.90S
GREYBULL       FAIR      91  38  15 N9G25     29.79R
WORLAND        FAIR      92  41  17 N12G18    29.78R
SHERIDAN       FAIR      92  44  19 N3        29.75F
BUFFALO        FAIR      90  45  21 E13G18    29.85S
GILLETTE       FAIR      76  56  49 E9        29.81F
HULETT         MOCLDY    73  54  49 S13G22    29.83F
NEWCASTLE      FAIR      86  45  23 SE15      29.81F

$$
WYZ014>020-022>026-101>103-310200-
CENTRAL WYOMING

CITY           SKY/WX    TMP DP  RH WIND       PRES   REMARKS
BIG PINEY      FAIR      75  45  34 MISG      30.13F
PINEDALE       FAIR      79  36  21 W8        30.13S
DUBOIS         FAIR      77  34  20 NW15G23   30.08F
LANDER         FAIR      83  41  22 W6        29.95S
RIVERTON       FAIR      85  38  18 W13       29.93F
CASPER         FAIR      87  38  17 SW9       29.88S
DOUGLAS        FAIR      92  39  15 S17       29.86F

$$
WYZ021-027>030-104>119-310200-
SOUTHERN WYOMING

CITY           SKY/WX    TMP DP  RH WIND       PRES   REMARKS
EVANSTON       PTSUNNY   73  47  39 SE15      30.15F
KEMMERER         N/A    N/A N/A N/A W10       30.16F
FORT BRIDGER   FAIR      73  46  37 S17       30.18F
ROCK SPRINGS   FAIR      78  39  24 SW10      30.13F
DIXON          FAIR      81  39  22 N10G18    30.11S
RAWLINS        FAIR      81  37  20 W25G38    30.10R
SARATOGA       FAIR      77  37  24 W25G35    30.14R
LARAMIE        FAIR      80  31  16 W18       30.10S
CHEYENNE       FAIR      81  54  39 S9        30.03F
TORRINGTON     FAIR      85  56  37 SE15      29.84F
PINE BLUFFS    FAIR      81  52  36 MISG      29.98S

$$



USA.gov is the U.S. government's official web portal to all federal, state and local government web resources and services.